Date String (YYYY-MM-DD hh:mm:ss) UTC,Instrument flags,absolute air pressure of the measurement (hPa),sample flow rate (lpm),inlet stack bypass flow (lpm),air temperature of the measurement (°C),ambient temperature measured by the external sensor (°C),aerosol sample conditioner tube jacket temperature (°C),OPC LED temperature (°C),internal box temperature (°C),relative humidity of the measurement (%),span deviation,mass concentration of particles derived from Lorenz-Mie calculation of OPC scattering (μg/m³),mass concentration of particles derived from Lorenz-Mie calculation of OPC scattering (μg/m³),mass concentration of particles derived from Lorenz-Mie calculation of OPC scattering (μg/m³)
DateTimeUTC,F1_M11,P_M11,Q1_M11,Q2_M11,T1_M11,T2_M11,T3_M11,T4_M11,T5_M11,U1_M11,ZSPAN_M11,X0_M11,X2_M11,X1_M11
2023-08-09 13:00:00,SystemResetWarning,0831.1,5.00,000.00,029.8,028.4,000.0,038.4,031.4,23.6,0000.0,0009.45,0005.01,0004.55
2023-08-09 13:01:00,SystemResetWarning,0831.1,5.00,000.00,029.8,028.5,000.0,038.4,031.4,23.6,0000.0,0009.84,0005.03,0004.55
2023-08-09 13:02:00,SystemResetWarning,0831.1,5.00,000.00,029.8,028.5,000.0,038.5,031.4,23.6,0000.0,0010.07,0005.03,0004.55
2023-08-09 13:03:00,SystemResetWarning,0831.2,5.00,000.00,029.8,028.5,000.0,038.5,031.4,23.7,0000.0,0009.97,0005.03,0004.55
2023-08-09 13:04:00,SystemResetWarning,0831.2,5.00,000.00,029.8,028.6,000.0,038.5,031.4,23.9,0000.0,0009.72,0005.06,0004.55
2023-08-09 13:05:00,SystemResetWarning,0831.2,5.00,000.00,029.9,028.6,000.0,038.5,031.4,24.0,0000.0,0009.71,0005.07,0004.55
2023-08-09 13:06:00,SystemResetWarning,0831.2,5.01,000.00,029.9,028.6,000.0,038.5,031.5,24.2,0000.0,0009.75,0005.08,0004.56
2023-08-09 13:07:00,SystemResetWarning,0831.2,5.00,000.00,029.9,028.6,000.0,038.5,031.5,24.4,0000.0,0009.69,0005.09,0004.55
2023-08-09 13:08:00,SystemResetWarning,0831.2,5.01,000.00,029.9,028.7,000.0,038.5,031.5,24.5,0000.0,0009.75,0005.12,0004.56
2023-08-09 13:09:00,SystemResetWarning,0831.2,5.00,000.00,029.9,028.7,000.0,038.5,031.5,24.5,0000.0,0010.27,0005.12,0004.55
2023-08-09 13:10:00,SystemResetWarning,0831.2,5.00,000.00,029.9,028.7,000.0,038.6,031.5,24.6,0000.0,0009.96,0005.12,0004.56
2023-08-09 13:11:00,SystemResetWarning,0831.2,5.00,000.00,030.0,028.7,000.0,038.6,031.6,24.8,0000.0,0009.61,0005.13,0004.57
2023-08-09 13:12:00,SystemResetWarning,0831.2,5.00,000.00,030.0,028.8,000.0,038.6,031.6,25.1,0000.0,0009.32,0005.14,0004.57
2023-08-09 13:13:00,SystemResetWarning,0831.3,5.00,000.00,030.0,028.8,000.0,038.6,031.6,25.2,0000.0,0009.30,0005.13,0004.57
2023-08-09 13:14:00,SystemResetWarning,0831.3,5.00,000.00,030.0,028.8,000.0,038.6,031.6,25.1,0000.0,0009.54,0005.13,0004.58
2023-08-09 13:15:00,SystemResetWarning,0831.3,5.00,000.00,030.0,028.8,000.0,038.6,031.6,25.2,0000.0,0009.53,0005.13,0004.59
2023-08-09 13:16:00,SystemResetWarning,0831.3,4.98,000.00,030.0,027.8,000.0,038.5,031.6,25.4,0000.0,0009.79,0005.12,0004.59
2023-08-09 13:17:00,SystemResetWarning,0831.3,5.02,000.00,030.0,026.3,000.0,038.4,031.3,25.8,0000.0,0010.69,0005.14,0004.58
2023-08-09 13:18:00,SystemResetWarning,0831.3,5.01,000.00,029.9,026.1,000.0,038.3,031.1,25.8,0000.0,0010.68,0005.12,0004.57
2023-08-09 13:19:00,SystemResetWarning,0831.3,4.98,000.00,029.8,026.3,000.0,038.4,031.0,25.5,0000.0,0010.34,0005.07,0004.54
2023-08-09 13:20:00,SystemResetWarning,0831.3,5.02,000.00,029.8,026.6,000.0,038.4,031.1,25.5,0000.0,0010.03,0005.04,0004.53
2023-08-09 13:21:00,SystemResetWarning,0831.3,5.00,000.00,029.7,026.9,000.0,038.4,031.1,25.9,0000.0,0010.48,0005.02,0004.53
2023-08-09 13:22:00,SystemResetWarning,0831.2,4.99,000.00,029.7,027.2,000.0,038.4,031.2,25.7,0000.0,0010.45,0005.05,0004.54
2023-08-09 13:23:00,SystemResetWarning,0831.3,5.00,000.00,029.7,027.5,000.0,038.4,031.2,25.5,0000.0,0010.44,0005.04,0004.54
2023-08-09 13:24:00,SystemResetWarning,0831.3,5.00,000.00,029.7,027.7,000.0,038.4,031.2,25.5,0000.0,0010.27,0005.03,0004.54
2023-08-09 13:25:00,SystemResetWarning,0831.3,5.01,000.00,029.7,027.9,000.0,038.4,031.3,25.7,0000.0,0009.84,0005.03,0004.54
2023-08-09 13:26:00,SystemResetWarning,0831.3,5.01,000.00,029.7,028.0,000.0,038.4,031.3,25.6,0000.0,0009.75,0005.01,0004.54
2023-08-09 13:27:00,SystemResetWarning,0831.3,4.99,000.00,029.7,028.1,000.0,038.4,031.3,25.7,0000.0,0009.66,0005.02,0004.55
2023-08-09 13:28:00,SystemResetWarning,0831.3,5.00,000.00,029.8,028.2,000.0,038.4,031.3,25.6,0000.0,0008.61,0005.02,0004.55
2023-08-09 13:29:00,SystemResetWarning,0831.2,5.00,000.00,029.8,028.3,000.0,038.4,031.4,25.4,0000.0,0008.61,0005.01,0004.56
2023-08-09 13:30:00,SystemResetWarning,0831.3,5.00,000.00,029.8,028.4,000.0,038.4,031.4,25.5,0000.0,0009.10,0005.04,0004.56
2023-08-09 13:31:00,SystemResetWarning,0831.3,5.00,000.00,029.8,028.5,000.0,038.4,031.4,25.7,0000.0,0009.05,0005.06,0004.56
2023-08-09 13:32:00,SystemResetWarning,0831.3,5.00,000.00,029.8,028.5,000.0,038.5,031.4,25.9,0000.0,0008.54,0005.08,0004.57
2023-08-09 13:33:00,SystemResetWarning,0831.3,5.00,000.00,029.8,028.6,000.0,038.5,031.5,26.0,0000.0,0008.58,0005.08,0004.56
2023-08-09 13:34:00,SystemResetWarning,0831.3,5.00,000.00,029.9,028.6,000.0,038.5,031.5,26.3,0000.0,0008.67,0005.12,0004.56
2023-08-09 13:35:00,SystemResetWarning,0831.3,5.01,000.00,029.9,028.7,000.0,038.5,031.5,25.9,0000.0,0008.66,0005.10,0004.56
2023-08-09 13:36:00,SystemResetWarning,0831.3,5.01,000.00,029.9,028.7,000.0,038.5,031.5,25.9,0000.0,0008.70,0005.11,0004.56
2023-08-09 13:37:00,SystemResetWarning,0831.3,5.00,000.00,029.9,028.7,000.0,038.5,031.5,26.2,0000.0,0008.81,0005.13,0004.55
2023-08-09 13:38:00,SystemResetWarning,0831.3,5.00,000.00,029.9,028.8,000.0,038.5,031.6,26.3,0000.0,0009.64,0005.15,0004.55
2023-08-09 13:39:00,SystemResetWarning,0831.3,5.00,000.00,030.0,028.8,000.0,038.6,031.6,25.9,0000.0,0009.93,0005.20,0004.55
2023-08-09 13:40:00,SystemResetWarning,0831.3,5.00,000.00,030.0,028.8,000.0,038.6,031.6,25.9,0000.0,0009.76,0005.19,0004.55
2023-08-09 13:41:00,SystemResetWarning,0831.4,4.99,000.00,030.0,028.8,000.0,038.6,031.6,26.0,0000.0,0009.39,0005.17,0004.55
2023-08-09 13:42:00,SystemResetWarning,0831.4,4.99,000.00,030.0,028.9,000.0,038.6,031.6,26.3,0000.0,0009.33,0005.15,0004.55
2023-08-09 13:43:00,SystemResetWarning,0831.4,5.01,000.00,030.0,028.9,000.0,038.6,031.7,26.2,0000.0,0009.20,0005.12,0004.52
2023-08-09 13:44:00,SystemResetWarning,0831.4,5.00,000.00,030.1,028.8,000.0,038.6,031.7,25.9,0000.0,0009.19,0005.09,0004.52
2023-08-09 13:45:00,SystemResetWarning,0831.4,4.99,000.00,030.1,027.5,000.0,038.5,031.6,26.0,0000.0,0009.61,0005.05,0004.51
2023-08-09 13:46:00,SystemResetWarning,0831.4,5.00,000.00,030.0,025.7,000.0,038.4,031.2,26.0,0000.0,0010.10,0005.06,0004.50
2023-08-09 13:47:00,SystemResetWarning,0831.4,5.01,000.00,029.9,025.2,000.0,038.3,031.0,26.2,0000.0,0010.10,0005.06,0004.49
2023-08-09 13:48:00,SystemResetWarning,0831.4,5.02,000.00,029.7,025.4,000.0,038.3,030.8,26.3,0000.0,0010.10,0005.05,0004.48
2023-08-09 13:49:00,SystemResetWarning,0831.4,4.99,000.00,029.6,025.8,000.0,038.3,030.8,26.4,0000.0,0009.51,0005.05,0004.48
2023-08-09 13:50:00,SystemResetWarning,0831.4,5.00,000.00,029.6,026.2,000.0,038.3,030.9,26.6,0000.0,0009.20,0004.98,0004.46
2023-08-09 13:51:00,SystemResetWarning,0831.5,5.01,000.00,029.6,026.6,000.0,038.3,031.0,27.0,0000.0,0009.50,0004.99,0004.45
2023-08-09 13:52:00,SystemResetWarning,0831.4,5.01,000.00,029.6,027.0,000.0,038.3,031.1,26.7,0000.0,0009.67,0005.02,0004.45
2023-08-09 13:53:00,SystemResetWarning,0831.5,5.00,000.00,029.6,027.3,000.0,038.3,031.1,27.0,0000.0,0009.63,0005.02,0004.45
2023-08-09 13:54:00,SystemResetWarning,0831.5,4.99,000.00,029.6,027.5,000.0,038.3,031.1,27.1,0000.0,0009.62,0005.04,0004.46
2023-08-09 13:55:00,SystemResetWarning,0831.5,5.01,000.00,029.6,027.7,000.0,038.3,031.2,26.6,0000.0,0009.87,0005.02,0004.47
2023-08-09 13:56:00,SystemResetWarning,0831.6,5.01,000.00,029.6,027.9,000.0,038.3,031.2,26.6,0000.0,0009.68,0005.02,0004.46
2023-08-09 13:57:00,SystemResetWarning,0831.6,5.00,000.00,029.6,028.0,000.0,038.3,031.2,26.7,0000.0,0009.32,0005.00,0004.46
2023-08-09 13:58:00,SystemResetWarning,0831.5,5.00,000.00,029.6,028.1,000.0,038.3,031.2,26.4,0000.0,0009.34,0005.00,0004.46
2023-08-09 13:59:00,SystemResetWarning,0831.5,4.99,000.00,029.7,028.2,000.0,038.3,031.3,26.7,0000.0,0009.41,0004.98,0004.44
